When you browse on this site, cookies collect data to enhance your experience and personalize the content and advertising you see.
Visit our Privacy Policy to learn more. By continuing to use the site, you agree to this use of cookies and data.
EN

Hourly Weather Sergievskoe

Today, 18 September, Friday

Time Temperature Precipitation Wind Pressure Humidity
00:00 +15°C° 0 mm 7 mps 742 mmHg 64%
01:00 +15°C° 0 mm 6 mps 741 mmHg 70%
02:00 +14°C° 0 mm 5 mps 741 mmHg 77%
03:00 +14°C° 0 mm 5 mps 740 mmHg 84%
04:00 +14°C° 0 mm 5 mps 740 mmHg 87%
05:00 +14°C° 0 mm 4 mps 740 mmHg 89%
06:00 +14°C° 0 mm 4 mps 740 mmHg 92%
07:00 +17°C° 0 mm 4 mps 740 mmHg 84%
08:00 +19°C° 0 mm 4 mps 740 mmHg 75%
09:00 +21°C° 0 mm 4 mps 739 mmHg 66%
10:00 +25°C° 0 mm 4 mps 739 mmHg 57%
11:00 +27°C° 0 mm 4 mps 739 mmHg 48%
12:00 +30°C° 0 mm 4 mps 739 mmHg 39%
13:00 +30°C° 0 mm 5 mps 739 mmHg 38%
14:00 +30°C° 0 mm 5 mps 738 mmHg 36%
15:00 +32°C° 0 mm 4 mps 738 mmHg 37%
16:00 +30°C° 0.1 mm 4 mps 738 mmHg 41%
17:00 +28°C° 0.1 mm 3 mps 738 mmHg 44%
18:00 +27°C° 0.1 mm 2 mps 738 mmHg 47%
19:00 +25°C° 1.2 mm 2 mps 738 mmHg 57%
20:00 +24°C° 1.2 mm 3 mps 739 mmHg 66%
21:00 +21°C° 1.2 mm 3 mps 739 mmHg 75%
22:00 +21°C° 0.1 mm 3 mps 739 mmHg 69%
23:00 +20°C° 0.1 mm 4 mps 739 mmHg 62%

Tomorrow, 19 September, Saturday

Time Temperature Precipitation Wind Pressure Humidity
00:00 +20°C° 0.1 mm 4 mps 739 mmHg 56%
01:00 +17°C° 0 mm 5 mps 739 mmHg 61%
02:00 +16°C° 0 mm 5 mps 740 mmHg 66%
03:00 +15°C° 0 mm 5 mps 740 mmHg 70%
04:00 +15°C° 0 mm 5 mps 740 mmHg 67%
05:00 +14°C° 0 mm 5 mps 740 mmHg 64%
06:00 +13°C° 0 mm 5 mps 741 mmHg 61%
07:00 +14°C° 0 mm 6 mps 741 mmHg 57%
08:00 +15°C° 0 mm 7 mps 741 mmHg 53%
09:00 +15°C° 0 mm 8 mps 742 mmHg 49%
10:00 +16°C° 0 mm 8 mps 742 mmHg 45%
11:00 +17°C° 0 mm 8 mps 742 mmHg 41%
12:00 +18°C° 0 mm 8 mps 742 mmHg 38%
13:00 +18°C° 0 mm 8 mps 742 mmHg 37%
14:00 +20°C° 0 mm 8 mps 742 mmHg 36%
15:00 +20°C° 0 mm 8 mps 742 mmHg 36%
16:00 +19°C° 0 mm 6 mps 742 mmHg 38%
17:00 +17°C° 0 mm 5 mps 743 mmHg 41%
18:00 +17°C° 0 mm 4 mps 743 mmHg 44%
19:00 +15°C° 0 mm 4 mps 743 mmHg 47%
20:00 +14°C° 0 mm 3 mps 744 mmHg 51%
21:00 +13°C° 0 mm 3 mps 744 mmHg 54%
22:00 +13°C° 0 mm 2 mps 744 mmHg 56%
23:00 +13°C° 0 mm 2 mps 744 mmHg 57%

Day after tomorrow, 20 September, Sunday

Time Temperature Precipitation Wind Pressure Humidity
00:00 +13°C° 0 mm 1 mps 744 mmHg 59%
01:00 +12°C° 0 mm 2 mps 744 mmHg 60%
02:00 +12°C° 0 mm 2 mps 744 mmHg 61%
03:00 +12°C° 0 mm 2 mps 744 mmHg 62%
04:00 +10°C° 0 mm 2 mps 744 mmHg 64%
05:00 +10°C° 0 mm 2 mps 744 mmHg 65%
06:00 +10°C° 0 mm 2 mps 744 mmHg 67%
07:00 +13°C° 0 mm 2 mps 744 mmHg 60%
08:00 +15°C° 0 mm 2 mps 744 mmHg 54%
09:00 +17°C° 0 mm 3 mps 744 mmHg 47%
10:00 +19°C° 0 mm 3 mps 744 mmHg 43%
11:00 +20°C° 0 mm 3 mps 743 mmHg 38%
12:00 +22°C° 0 mm 3 mps 743 mmHg 34%
13:00 +22°C° 0 mm 3 mps 743 mmHg 33%
14:00 +24°C° 0 mm 3 mps 743 mmHg 31%
15:00 +25°C° 0 mm 4 mps 742 mmHg 30%
16:00 +22°C° 0 mm 3 mps 743 mmHg 33%
17:00 +21°C° 0 mm 3 mps 743 mmHg 37%
18:00 +20°C° 0 mm 2 mps 743 mmHg 40%
19:00 +19°C° 0 mm 2 mps 744 mmHg 42%
20:00 +19°C° 0 mm 1 mps 744 mmHg 44%
21:00 +16°C° 0 mm 1 mps 745 mmHg 46%
22:00 +15°C° 0 mm 2 mps 745 mmHg 49%
23:00 +15°C° 0 mm 2 mps 745 mmHg 51%

21 September, Monday

Time Temperature Precipitation Wind Pressure Humidity
00:00 +14°C° 0 mm 2 mps 745 mmHg 53%
01:00 +13°C° 0 mm 2 mps 745 mmHg 54%
02:00 +13°C° 0 mm 2 mps 746 mmHg 56%
03:00 +12°C° 0 mm 2 mps 746 mmHg 57%
04:00 +12°C° 0 mm 2 mps 746 mmHg 58%
05:00 +10°C° 0 mm 2 mps 746 mmHg 59%
06:00 +10°C° 0 mm 2 mps 746 mmHg 60%
07:00 +12°C° 0 mm 3 mps 746 mmHg 54%
08:00 +14°C° 0 mm 4 mps 746 mmHg 48%
09:00 +16°C° 0 mm 5 mps 746 mmHg 42%
10:00 +19°C° 0 mm 5 mps 746 mmHg 39%
11:00 +20°C° 0 mm 5 mps 746 mmHg 37%
12:00 +21°C° 0 mm 5 mps 745 mmHg 34%
13:00 +22°C° 0 mm 5 mps 745 mmHg 34%
14:00 +22°C° 0 mm 5 mps 745 mmHg 33%
15:00 +23°C° 0 mm 5 mps 744 mmHg 32%
16:00 +21°C° 0 mm 5 mps 744 mmHg 35%
17:00 +20°C° 0 mm 4 mps 744 mmHg 38%
18:00 +19°C° 0 mm 3 mps 744 mmHg 41%
19:00 +18°C° 0 mm 4 mps 744 mmHg 41%
20:00 +17°C° 0 mm 4 mps 745 mmHg 42%
21:00 +15°C° 0 mm 4 mps 745 mmHg 42%
22:00 +15°C° 0 mm 4 mps 745 mmHg 46%
23:00 +14°C° 0 mm 4 mps 745 mmHg 50%

22 September, Tuesday

Time Temperature Precipitation Wind Pressure Humidity
00:00 +13°C° 0 mm 4 mps 744 mmHg 53%
01:00 +13°C° 0 mm 4 mps 744 mmHg 59%
02:00 +12°C° 0 mm 4 mps 744 mmHg 64%
03:00 +12°C° 0 mm 3 mps 744 mmHg 69%
04:00 +12°C° 0 mm 3 mps 744 mmHg 72%
05:00 +11°C° 0 mm 3 mps 745 mmHg 74%
06:00 +11°C° 0 mm 3 mps 745 mmHg 76%
07:00 +13°C° 0 mm 4 mps 745 mmHg 72%
08:00 +15°C° 0 mm 5 mps 745 mmHg 67%
09:00 +17°C° 0 mm 6 mps 745 mmHg 62%
10:00 +20°C° 0 mm 6 mps 745 mmHg 58%
11:00 +21°C° 0 mm 6 mps 745 mmHg 54%
12:00 +22°C° 0 mm 6 mps 745 mmHg 50%
13:00 +23°C° 0 mm 6 mps 745 mmHg 49%
14:00 +23°C° 0 mm 6 mps 745 mmHg 47%
15:00 +24°C° 0 mm 6 mps 744 mmHg 46%
16:00 +22°C° 0 mm 5 mps 744 mmHg 51%
17:00 +21°C° 0 mm 5 mps 745 mmHg 56%
18:00 +20°C° 0 mm 5 mps 745 mmHg 60%
19:00 +19°C° 0 mm 5 mps 745 mmHg 63%
20:00 +19°C° 0 mm 5 mps 745 mmHg 65%
21:00 +17°C° 0 mm 5 mps 745 mmHg 67%
22:00 +17°C° 0 mm 5 mps 745 mmHg 70%
23:00 +17°C° 0 mm 5 mps 745 mmHg 72%

23 September, Wednesday

Time Temperature Precipitation Wind Pressure Humidity
00:00 +16°C° 0 mm 6 mps 745 mmHg 74%
01:00 +16°C° 0 mm 6 mps 745 mmHg 78%
02:00 +16°C° 0 mm 6 mps 745 mmHg 82%
03:00 +16°C° 0 mm 6 mps 745 mmHg 86%
04:00 +15°C° 0 mm 6 mps 745 mmHg 86%
05:00 +15°C° 0 mm 6 mps 745 mmHg 85%
06:00 +14°C° 0 mm 6 mps 745 mmHg 85%
07:00 +16°C° 0 mm 7 mps 745 mmHg 77%
08:00 +17°C° 0 mm 8 mps 745 mmHg 70%
09:00 +18°C° 0 mm 8 mps 745 mmHg 62%
10:00 +21°C° 0 mm 9 mps 745 mmHg 56%
11:00 +22°C° 0 mm 9 mps 744 mmHg 50%
12:00 +23°C° 0 mm 9 mps 744 mmHg 45%
13:00 +24°C° 0 mm 9 mps 744 mmHg 44%
14:00 +24°C° 0 mm 9 mps 743 mmHg 44%
15:00 +24°C° 0 mm 9 mps 743 mmHg 44%
16:00 +23°C° 0 mm 8 mps 743 mmHg 47%
17:00 +22°C° 0 mm 7 mps 743 mmHg 49%
18:00 +21°C° 0 mm 6 mps 743 mmHg 52%
19:00 +20°C° 0 mm 7 mps 743 mmHg 53%
20:00 +18°C° 0 mm 8 mps 743 mmHg 55%
21:00 +17°C° 0 mm 8 mps 743 mmHg 56%
22:00 +16°C° 0 mm 8 mps 743 mmHg 59%
23:00 +16°C° 0 mm 8 mps 743 mmHg 61%
Show more